Regional Weather Roundup
Issued by NWS

Home | Current Version | Previous Version | Text Only | Print | Product List | Glossary On
Versions: 1 2 3 4 5 6 7 8 9 10 11 12 13 14 15 16 17 18 19 20 21 22 23 24 25 26 27 28 29 30 31 32 33 34 35 36 37 38 39 40 41 42 43 44 45 46 47 48 49 50
000
ASUS46 KSEW 031210
RWRWA

WASHINGTON REGIONAL WEATHER ROUNDUP
NATIONAL WEATHER SERVICE SEATTLE WA
500 AM PDT TUE AUG 03 2021

NOTE:"FAIR" INDICATES FEW OR NO CLOUDS BELOW 12,000 FEET WITH NO
SIGNIFICANT WEATHER AND/OR OBSTRUCTIONS TO VISIBILITY.

WAZ507-509-555>559-031300-
SEATTLE, TACOMA, EVERETT, AND VICINITY

CITY           SKY/WX    TMP DP  RH WIND       PRES   REMARKS
EVERETT        CLEAR     57  51  80 N6        30.09S
6HR MIN TEMP:  57; 6HR MAX TEMP:  63;

BOEING FIELD   CLEAR     61  53  75 NW3       30.07S
6HR MIN TEMP:  61; 6HR MAX TEMP:  71;

RENTON         CLEAR     67  49  52 N7        30.07S
6HR MIN TEMP:  67; 6HR MAX TEMP:  73;

SEATAC AIRPORT PTCLDY    62  49  62 NW3       30.08S
6HR MIN TEMP:  62; 6HR MAX TEMP:  71;

JBLM-MCCHORD   PTCLDY    57  51  79 CALM      30.08S
6HR MIN TEMP:  56; 6HR MAX TEMP:  71;

PUYALLUP       CLOUDY    59  55  88 CALM      30.08F
BREMERTON      CLEAR     54  51  90 CALM      30.09S
6HR MIN TEMP:  53; 6HR MAX TEMP:  65;

JBLM-FT LEWIS  NOT AVBL
TACOMA NARROWS CLEAR     58  52  80 CALM      30.09S
6HR MIN TEMP:  58; 6HR MAX TEMP:  68;

$$

WAZ001-503-506-510-514-515-031300-
NORTH INTERIOR

CITY           SKY/WX    TMP DP  RH WIND       PRES   REMARKS
BELLINGHAM     CLEAR     56  56 100 CALM      30.07S
6HR MIN TEMP:  55; 6HR MAX TEMP:  63;

FRIDAY HARBOR  CLEAR     52  51  97 CALM      30.09R
6HR MIN TEMP:  52; 6HR MAX TEMP:  55;

EASTSOUND      PTCLDY    57  55  94 CALM      30.07S
PORT ANGELES   CLEAR     52  49  89 W5        30.10S
6HR MIN TEMP:  52; 6HR MAX TEMP:  60;

EDIZ HOOK      FAIR      54  53  96 W9        30.10S
6HR MIN TEMP:  54; 6HR MAX TEMP:  57;

PORT TOWNSEND  FAIR      52  50  93 CALM      30.08S
NAS WHIDBEY    PTCLDY    55  52  89 SW6       30.12S
6HR MIN TEMP:  54; 6HR MAX TEMP:  58;

ARLINGTON      CLEAR     55  52  89 CALM      30.09R
6HR MIN TEMP:  55; 6HR MAX TEMP:  60;

BURLINGTON     CLOUDY    52  50  93 CALM      30.09R FOG
$$

WAZ020-022-039-040-504-511-512-031300-
SOUTHWEST INTERIOR

CITY           SKY/WX    TMP DP  RH WIND       PRES   REMARKS
SHELTON        CLEAR     54  52  93 W6        30.07S
6HR MIN TEMP:  54; 6HR MAX TEMP:  67;

OLYMPIA        CLEAR     56  52  86 CALM      30.08S
6HR MIN TEMP:  55; 6HR MAX TEMP:  73;

CHEHALIS       CLOUDY    57  55  94 CALM      30.09R
KELSO          CLEAR     59  54  83 NE3       30.10S
6HR MIN TEMP:  58; 6HR MAX TEMP:  66;

VANCOUVER      CLEAR     65  51  60 CALM      30.05S
6HR MIN TEMP:  64; 6HR MAX TEMP:  76; 6HR PCP: TRACE;

SCAPPOOSE, OR  CLEAR     62  55  77 CALM      30.05R
6HR MIN TEMP:  61; 6HR MAX TEMP:  75;

PORTLAND, OR   PTCLDY    65  54  67 NW5       30.06S
6HR MIN TEMP:  65; 6HR MAX TEMP:  77; 6HR PCP: TRACE;

$$

WAZ021-516-517-031300-
WASHINGTON COAST

CITY           SKY/WX    TMP DP  RH WIND       PRES   REMARKS
FORKS          CLOUDY    54  53  97 CALM      30.11F
6HR MIN TEMP:  50; 6HR MAX TEMP:  54;

HOQUIAM        CLEAR     53  50  89 CALM      30.11S
6HR MIN TEMP:  53; 6HR MAX TEMP:  59;

ASTORIA, OR    PTCLDY    56  53  90 NW17      30.11S
6HR MIN TEMP:  56; 6HR MAX TEMP:  58;

$$

WAZ019-023-024-040-567>569-031300-
CASCADE MOUNTAINS AND COLUMBIA GORGE

CITY           SKY/WX    TMP DP  RH WIND       PRES   REMARKS
STAMPEDE PASS  CLEAR     72  51  47 CALM      30.21F
6HR MIN TEMP:  69; 6HR MAX TEMP:  74;

TROUTDALE, OR  CLEAR     66  56  70 W3        30.05S
6HR MIN TEMP:  65; 6HR MAX TEMP:  77;

HOOD RIVER, OR NOT AVBL
THE DALLES, OR CLEAR     74  61  63 W6        29.98S
6HR MIN TEMP:  74; 6HR MAX TEMP:  86;

$$

WAZ026-027-041>044-520-521-031300-
EAST SLOPES

CITY           SKY/WX    TMP DP  RH WIND       PRES   REMARKS
OMAK           CLEAR     71  49  45 N9        30.06S HAZE
6HR MIN TEMP:  68; 6HR MAX TEMP:  82;

WENATCHEE      CLEAR     70  52  52 W7        30.04S
6HR MIN TEMP:  70; 6HR MAX TEMP:  83;

ELLENSBURG     CLEAR     62  50  64 N5        30.07S
6HR MIN TEMP:  60; 6HR MAX TEMP:  78;

YAKIMA         CLEAR     69  51  52 W9        30.03S
6HR MIN TEMP:  65; 6HR MAX TEMP:  76;

SUNNYSIDE ARPT SUNNY     64  62  93 CALM      30.01R
6HR MIN TEMP:  64; 6HR MAX TEMP:  73;

YAKIMA TC      FAIR      71  51  48 CALM      30.03S
6HR MIN TEMP:  69; 6HR MAX TEMP:  80;

$$

WAZ028-034-035-031300-
COLUMBIA BASIN

CITY           SKY/WX    TMP DP  RH WIND       PRES   REMARKS
EPHRATA        CLEAR     69  52  54 N5        30.02S HAZE
6HR MIN TEMP:  69; 6HR MAX TEMP:  82;

MOSES LAKE     CLEAR     63  55  75 N6        30.03R HAZE
6HR MIN TEMP:  63; 6HR MAX TEMP:  80;

PASCO          CLEAR     66  62  87 NW3       29.99R FOG
6HR MIN TEMP:  65; 6HR MAX TEMP:  79;

RICHLAND ARPT  SUNNY     70  63  80 CALM      29.98F
6HR MIN TEMP:  69; 6HR MAX TEMP:  81;

HERMISTON, OR  CLEAR     68  55  63 S5        29.99R
6HR MIN TEMP:  66; 6HR MAX TEMP:  81;

$$

WAZ036>038-031300-
NORTHEAST WASHINGTON

CITY           SKY/WX    TMP DP  RH WIND       PRES   REMARKS
SPOKANE GEIGER MOCLDY    70  52  52 S7        30.10S SMOKE
6HR MIN TEMP:  70; 6HR MAX TEMP:  78;

SPOKANE FELTS  PTCLDY    68  57  68 NE3       30.09S SMOKE
6HR MIN TEMP:  67; 6HR MAX TEMP:  77;

FAIRCHILD AFB  PTCLDY    67  50  56 SE3       30.11R SMOKE
6HR MIN TEMP:  65; 6HR MAX TEMP:  73;

COEURDALENE,ID CLEAR     67  60  78 NE7       30.12R HAZE
6HR MIN TEMP:  65; 6HR MAX TEMP:  75;

DEER PARK      CLEAR     62  53  72 CALM      30.10S HAZE
6HR MIN TEMP:  62; 6HR MAX TEMP:  71;

$$

WAZ029>033-031300-
SOUTHEAST WASHINGTON

CITY           SKY/WX    TMP DP  RH WIND       PRES   REMARKS
PULLMAN        CLEAR     64  51  62 CALM      30.13S HAZE
6HR MIN TEMP:  61; 6HR MAX TEMP:  69;

LEWISTON, ID   CLEAR     72  49  44 S3        30.07R
6HR MIN TEMP:  72; 6HR MAX TEMP:  84;

WALLA WALLA    CLEAR     75  55  49 SE3       30.02R
6HR MIN TEMP:  73; 6HR MAX TEMP:  81;

PENDLETON, OR  CLEAR     70  51  51 SE3       30.04S
6HR MIN TEMP:  70; 6HR MAX TEMP:  79;

$$



USA.gov is the U.S. government's official web portal to all federal, state and local government web resources and services.